Jackpot

Texas Poker Multi Jackpot System

Kini Telah hadir Jackpot SUPER ROYAL FLUSH

Kini Telah hadir Jackpot 2000 (khusus table VIP keatas).

Ikutilah global jackpot yang tersedia di system kami, dengan system jackpot terbaru dan pertama di indonesia, anda dapat membeli jackpot dengan harga 100 rupiah saja dan menangkan hadiahnya hingga puluhan juta rupiah.

Jackpot bukanlah suatu keharusan untuk dibeli, namun kami memberikan suatu fitur tambahan untuk member tercinta dari www.zienpoker2.com.

Terdapat tiga pilihan harga jackpot yang bisa anda beli yaitu :100,500,1000 dan 2000(khusus table VIP Keatas) rupiah.

Hadiah dari Multi jackpot system www.zienpoker2.com

  1. full house x 10 harga jackpot yang anda beli.
      (contoh:anda membeli 1000 maka:1000 X10 = 10.000)
  2. four of kind x 250 harga jackpot yang anda beli
      (contoh:anda membeli 1000 maka:1000 X250 = 250.000)
  3. Straight flush x 1200
      (contoh:anda membeli 1000 maka:1000 X1200 = 1.200.000)
  4. Royal flush x 10000 harga jackpot yang anda beli
      (contoh:anda membeli 1000 maka:1000 X10000 = 10.000.000)
  5. SUPER ROYAL FLUSH x 30000 harga jackpot yang anda beli
      (contoh:anda membeli 1000 maka:1000 X30000 = 30.000.000)

Kondisi kartu

  1. full house adalah kondisi kartu dimana kartu anda dan kartu tengah dengan total 7 kartu bisa mendapatkan nilai 5 kartu dengan kombinasi 1 tris(three of kind) dan 1 pair, contoh 3 kartu 10 dan 2 kartu 5
  2. Four of kind adalah kondisi kartu dimana kartu anda dan kartu tengah dengan total 7 kartu bisa mendapatkan nilai 5 kartu dengan kombinasi 4 kartu yang sama jumlah dan 1 kartu apapun juga contoh anda mendapatkan 4 buah kartu angka 3 dan 1 kartu apapun.
  3. Staright flush adalah kondisi kartu dimana kartu anda dan kartu tengah dengan total 7 kartu bisa mendapatkan nilai 5 kartu dengan kombinasi seri / staright dengan kembang yang sama contoh : urutan kartu dari angka 5, 6, 7, 8 , 9 10 dengan kembang yg sama misalnya as hati
  4. Royal flush adalah kondisi kartu dimana kartu anda dan kartu tengah dengan total 7 kartu bisa mendapatkan nilai 5 kartu dengan kombinasi seri / staright dengan kembang yang sama tetapi kartu tersebut haruslah dimulai dari 10. contoh 10, Queen, Jack, King dan aces dengan kembang yang sama
  5. Super Royal flush adalah kondisi kartu dimana Kedua kartu anda digabung dengan 3 kartu pertama meja haruslah royal flush. contoh kartu anda 10,Queen kembang sama dan 3 kartu pertama meja adalah Jack, King dan aces dengan kembang yang sama

Demikian adalah penjelasan dari Multi Jackpot www.zienpoker2.com terima kasih dan selamat bermain salam hoki dari kami

Texas Poker Jackpot Winner

TOP SUPER ROYAL FLUSH
No.TanggalNamaPriceWin
123/09 00:01ANTY69Super Royal flush6,000,000
222/09 23:57ACUY456Super Royal flush6,000,000
322/09 22:37HEBOH_9Super Royal flush6,000,000
422/09 21:03SAMSUDIN99Super Royal flush6,000,000
522/09 19:41A4627HGSuper Royal flush3,000,000
TOP ROYAL FLUSH
No.TanggalNamaPriceWin
123/09 10:47U9URoyal flush2,000,000
223/09 10:41MUISKINGRoyal flush1,000,000
323/09 10:31KACIO88Royal flush2,000,000
423/09 10:05JEGANG03Royal flush2,000,000
523/09 09:51WALUYO02Royal flush2,000,000
TOP STRAIGHT FLUSH
No.TanggalNamaPriceWin
123/09 11:02WULANERTStraight Flush600,000
223/09 11:00M4SSU475Straight Flush1,200,000
323/09 11:00WEDUS123Straight Flush1,200,000
423/09 10:58BELAGU801Straight Flush120,000
523/09 10:58BATALIYON1Straight Flush240,000
LATEST JACKPOT
No.TanggalNamaPriceWin
123/09 11:06OFIFull House5,000
223/09 11:06BANDENGAN8Full House5,000
323/09 11:06BCEXFull House10,000
423/09 11:06U3NFLXWNFDFull House1,000
523/09 11:06TUOLON6Full House2,000
623/09 11:06KITIL95Full House5,000
723/09 11:06BHM78Full House5,000
823/09 11:06SINYOO69Full House20,000
923/09 11:06BONG44Full House5,000
1023/09 11:06ANDRI_ALFull House10,000
1123/09 11:06FC870545Full House2,000
1223/09 11:06QPLIEE89Full House20,000
1323/09 11:06B66774C2Full House5,000
1423/09 11:06DEX3636Full House10,000
1523/09 11:05GRAND46Full House2,000
1623/09 11:05KRISHNA363Full House1,000
1723/09 11:05NNA14Full House2,000
1823/09 11:05LANTONKFour Of A Kind125,000
1923/09 11:05DWBTCAND40Full House2,000
2023/09 11:05GOLD99_Four Of A Kind25,000
2123/09 11:05E410E169Full House2,000
2223/09 11:05BAREMPEFull House2,000
2323/09 11:05QIU_PEFull House5,000
2423/09 11:05GOKIL_888Full House2,000
2523/09 11:05B4N6K4Full House10,000
2623/09 11:05BAND4N4Full House2,000
2723/09 11:05BOBYMPEFull House5,000
2823/09 11:05CFDAFD00Full House10,000
2923/09 11:05GRRLZNW38OFull House5,000
3023/09 11:05HP9HY1MO9IFull House10,000
3123/09 11:05ANU9R411Full House2,000
3223/09 11:05WEWE08Full House5,000
3323/09 11:05SISKATRGFull House2,000
3423/09 11:05DHANIZAHRAFull House2,000
3523/09 11:05JITU508Full House2,000
3623/09 11:05ASIENG23Full House500
3723/09 11:05FOX55Full House10,000
3823/09 11:05DULAN6Full House5,000
3923/09 11:05AGOENGDAFull House20,000
4023/09 11:05LAMBADA171Full House2,000
4123/09 11:05RIOCIKALFull House10,000
4223/09 11:05SBYPOKER17Full House2,000
4323/09 11:05DWBTEN57Full House2,000
4423/09 11:05GIBAS45Full House500
4523/09 11:04RAFFE12Full House2,000
4623/09 11:04JOKER8MFull House5,000
4723/09 11:04MENANG1325Full House10,000
4823/09 11:04MAXI001Full House5,000
4923/09 11:04W1NN3R10JTFull House2,000
5023/09 11:04DNANGINFull House10,000

Domino Multi Jackpot System

Ikutilah global jackpot yang tersedia di system kami, dengan system jackpot terbaru dan pertama di indonesia, anda dapat membeli jackpot dengan harga 100 rupiah saja dan menangkan hadiahnya hingga puluhan juta rupiah.

Jackpot bukanlah suatu keharusan untuk dibeli, namun kami memberikan suatu fitur tambahan untuk member tercinta dari www.zienpoker2.com.

Terdapat tiga pilihan harga jackpot yang bisa anda beli yaitu :100,500 dan 1000 rupiah.

Hadiah dari Multi jackpot system www.zienpoker2.com

  1. Murni Kecil x 50 harga jackpot yang anda beli.
      (contoh:anda membeli 1000 maka:1000 X 50 = 50.000)
  2. Murni Besar x 50 harga jackpot yang anda beli
      (contoh:anda membeli 1000 maka:1000 X 50 = 50.000)
  3. BALAK x 100 harga jackpot yang anda beli
      (contoh:anda membeli 1000 maka:1000 X 100 = 100.000)
  4. ENAM DEWA x 6666 harga jackpot yang anda beli
      (contoh:anda membeli 1000 maka:1000 X 6666 = 6.666.000)

Demikian adalah penjelasan dari Multi Jackpot www.zienpoker2.com terima kasih dan selamat bermain salam hoki dari kami

Domino Jackpot Winner

TOP ENAM DEWA
No.TanggalNamaPriceWin
123/09 10:39LAMPUIDmurni enam6,666,000
223/09 09:52TINTAMAS88murni enam3,333,000
323/09 07:30LUCKYPANDAmurni enam6,666,000
423/09 07:24DN4DJUST20murni enam3,333,000
523/09 06:35LAPES88murni enam3,333,000
TOP BALAK
No.TanggalNamaPriceWin
123/09 11:05ILOQ7O7GSTbalak100,000
223/09 11:01RABI0999balak50,000
323/09 11:01RISHOKYbalak50,000
423/09 11:00ABC122333balak50,000
523/09 11:00C20IRUL455balak50,000
LATEST JACKPOT
No.TanggalNamaPriceWin
123/09 11:06MASBERTO08murni besar25,000
223/09 11:05ILOQ7O7GSTbalak100,000
323/09 11:05MANYAR99lucky9925,000
423/09 11:05LUTRAS99Bmurni besar25,000
523/09 11:05AGIL90Rmurni kecil25,000
623/09 11:04KINOY83murni kecil50,000
723/09 11:03AL_21murni besar5,000
823/09 11:01RABI0999balak50,000
923/09 11:01RISHOKYbalak50,000
1023/09 11:00ABC122333balak50,000
1123/09 11:00RIYAN_181lucky9925,000
1223/09 11:00TEMPE444murni besar25,000
1323/09 11:00C20IRUL455balak50,000
1423/09 11:00ONOY9090murni kecil50,000
1523/09 10:59RABI0999murni besar25,000
1623/09 10:58BUTO_PINKmurni besar25,000
1723/09 10:58AAE465DEmurni kecil5,000
1823/09 10:58BEW666balak10,000
1923/09 10:58IDAKOmurni besar5,000
2023/09 10:57KOMBILIbalak100,000
2123/09 10:57YANTO971murni besar50,000
2223/09 10:56CMD95257murni besar50,000
2323/09 10:56OLALAH09balak100,000
2423/09 10:56IYAKENAmurni kecil50,000
2523/09 10:56JABARUNlucky9910,000
2623/09 10:56CAHAYA1212balak50,000
2723/09 10:55A95BA419murni kecil5,000
2823/09 10:54EKYSET867murni kecil25,000
2923/09 10:54HARRYPOT_murni kecil5,000
3023/09 10:54H1UOmurni kecil5,000
3123/09 10:54MABES188murni kecil50,000
3223/09 10:54CARDO850murni besar50,000
3323/09 10:53ALFAMARTSmurni besar50,000
3423/09 10:53MODALBINImurni besar50,000
3523/09 10:53MAKKARAENGmurni besar25,000
3623/09 10:52B155A6D0murni besar5,000
3723/09 10:52KINOY83balak100,000
3823/09 10:52AZIEmurni besar25,000
3923/09 10:52AIS72murni besar25,000
4023/09 10:51LICSmurni besar5,000
4123/09 10:51NNTSU19lucky9950,000
4223/09 10:51HANTU067murni kecil25,000
4323/09 10:51GURUINDmurni kecil5,000
4423/09 10:50SURIMAN87lucky9925,000
4523/09 10:50KARABAS2balak100,000
4623/09 10:49MACANKIPmurni besar50,000
4723/09 10:49R156murni kecil25,000
4823/09 10:49ASMAN9murni kecil25,000
4923/09 10:49MZGUSAYmurni kecil5,000
5023/09 10:49YONELVImurni besar25,000

Ceme Multi Jackpot System

Jackpot dilihat dari gabungan kartu pemain dengan kartu bandar. Bandar harus membeli jackpot sebanyak jumlah player yang sedang duduk. Sebagai contoh bila terdapat 3 pemain duduk bermain, dan bandar memutuskan untuk membeli jackpot Rp 1.000, maka pada periode tersebut bandar akan membeli jackpot sebanyak 3xRp1.000 = Rp3.000.

Jackpot bukanlah suatu keharusan untuk dibeli, namun kami memberikan suatu fitur tambahan untuk member tercinta dari www.zienpoker2.com.

Terdapat tiga pilihan harga jackpot yang bisa anda beli yaitu :100,500 dan 1000 rupiah.

Hadiah dari Multi jackpot system www.zienpoker2.com

  1. Murni Kecil x 50 harga jackpot yang anda beli.
      (contoh:anda membeli 1000 maka:1000 X 50 = 50.000)
  2. Murni Besar x 50 harga jackpot yang anda beli
      (contoh:anda membeli 1000 maka:1000 X 50 = 50.000)
  3. BALAK x 200 harga jackpot yang anda beli
      (contoh:anda membeli 1000 maka:1000 X 200 = 200.000)
  4. ENAM DEWA x 6666 harga jackpot yang anda beli
      (contoh:anda membeli 1000 maka:1000 X 6666 = 6.666.000)

Demikian adalah penjelasan dari Multi Jackpot www.zienpoker2.com terima kasih dan selamat bermain salam hoki dari kami

Ceme Jackpot Winner

TOP ENAM DEWA
No.TanggalNamaPriceWin
123/09 11:02NITHANTIKAmurni enam6,666,000
223/09 10:29CHJ4YGOSORmurni enam6,666,000
323/09 10:16JECQIUmurni enam6,666,000
423/09 10:14TANAKBIDmurni enam6,666,000
523/09 09:45IGAN93106murni enam3,333,000
TOP BALAK
No.TanggalNamaPriceWin
123/09 11:06TANAKBIDbalak200,000
223/09 11:06W4LET11balak20,000
323/09 11:06BBEK29balak20,000
423/09 11:06DENIST1balak200,000
523/09 11:06KODIR63balak200,000
LATEST JACKPOT
No.TanggalNamaPriceWin
123/09 11:06TANAKBIDbalak200,000
223/09 11:06W4LET11balak20,000
323/09 11:06QIEEEEmurni besar50,000
423/09 11:06BBEK29balak20,000
523/09 11:06DENIST1balak200,000
623/09 11:06KODIR63balak200,000
723/09 11:06JOKO234murni kecil50,000
823/09 11:06R0H4F9185Bmurni kecil5,000
923/09 11:06KUKUMmurni besar50,000
1023/09 11:05DIKA23murni kecil50,000
1123/09 11:05NUBPLERmurni kecil5,000
1223/09 11:05MEIFAImurni kecil50,000
1323/09 11:05BG15JTmurni besar25,000
1423/09 11:05ELANG888murni besar25,000
1523/09 11:05BEN0Ymurni besar50,000
1623/09 11:05TANAKBIDmurni kecil50,000
1723/09 11:05HENGKII136murni kecil50,000
1823/09 11:05DOMINO899murni kecil50,000
1923/09 11:05AADJIE27murni kecil25,000
2023/09 11:05WB6JO29QWLbalak100,000
2123/09 11:05MUSMEONGmurni kecil50,000
2223/09 11:04JEFRIAGUSTmurni besar5,000
2323/09 11:04GELAU5Smurni kecil25,000
2423/09 11:04WARDAH9murni kecil50,000
2523/09 11:04KONTLO123murni kecil50,000
2623/09 11:04TULUS63murni kecil50,000
2723/09 11:04SATERR88murni besar50,000
2823/09 11:04RACHMATHbalak200,000
2923/09 11:04DIAN56balak20,000
3023/09 11:03K4354R27murni kecil25,000
3123/09 11:03VW1EVCATXSmurni kecil5,000
3223/09 11:03QILY15murni besar50,000
3323/09 11:03ABCDEFG7HImurni besar50,000
3423/09 11:03QILY15murni besar50,000
3523/09 11:03HERI050515murni besar5,000
3623/09 11:03ISNNmurni kecil50,000
3723/09 11:03SAPUTRA45murni kecil50,000
3823/09 11:03FIO11111balak200,000
3923/09 11:03NARCO22balak200,000
4023/09 11:03JEPIT9999murni kecil50,000
4123/09 11:03MOKE9911balak200,000
4223/09 11:03SARWAN83murni kecil5,000
4323/09 11:03RATUVIVImurni kecil50,000
4423/09 11:03AGENBNI46murni besar5,000
4523/09 11:02MUEZZAmurni kecil50,000
4623/09 11:02SURTI81murni kecil5,000
4723/09 11:02ANTO2409murni kecil50,000
4823/09 11:02ITELmurni kecil5,000
4923/09 11:02GELAU5Smurni kecil25,000
5023/09 11:02BLEKOK666murni kecil50,000